Location: Cargill Incorporated Elevator
(42.7294°N, 93.7333°W)
Time: 04:50:51
(UTC+00:00)

Cosmos 2084 Rocket - Pass Details

Date: 19 January 2026
Orbit: 541 x 571 km, 62.8° (Epoch: 15 February)

Event Time Altitude Azimuth Distance (km) Brightness Sun altitude
Exits shadow 12:11:57 18° 332° (NNW) 1,426 5.0 -16.0°
Maximum altitude 12:15:00 65° 51° (NE) 630 3.7 -15.5°
Drops below altitude 10° 12:19:11 10° 134° (SE) 1,869 7.0 -14.7°
Sets 12:21:26 0° 137° (SE) 2,763 7.9 -14.3°
